Weather reports worldwide

Advertisment
Geneve-Cointrin, Switzerland (6700): temperature & dewpoint: 09.10.2019 20:00:00 - 15.10.2019 20:00:00 (CEST)Geneve-Cointrin, Switzerland (6700): temperature 5cm: 09.10.2019 20:00:00 - 15.10.2019 20:00:00 (CEST)Geneve-Cointrin, Switzerland (6700): wind speed & gusts: 09.10.2019 20:00:00 - 15.10.2019 20:00:00 (CEST)Geneve-Cointrin, Switzerland (6700): wind direction: 09.10.2019 20:00:00 - 15.10.2019 20:00:00 (CEST)Geneve-Cointrin, Switzerland (6700): reduced air pressure: 09.10.2019 20:00:00 - 15.10.2019 20:00:00 (CEST)Geneve-Cointrin, Switzerland (6700): visibility: 09.10.2019 20:00:00 - 15.10.2019 20:00:00 (CEST)Geneve-Cointrin, Switzerland (6700): sunshine duration: 09.10.2019 20:00:00 - 15.10.2019 20:00:00 (CEST)Geneve-Cointrin, Switzerland (6700): precipitation: 09.10.2019 20:00:00 - 15.10.2019 20:00:00 (CEST)
Date & Time tt [°C] td [°C] tt 5cm [°C] ff [km/h] ff [kn] fx [km/h] fx [kn] dd ppp [hPa] vv [km] sd [min] rr [mm]
15.10.2019 20:00:00 - - - - - - - - - - - -
15.10.2019 19:00:00 10,1 8,4 9,0 14 8 31 17 S 1015,4 - 0 0,9
15.10.2019 18:00:00 11,1 9,6 10,1 15 8 31 17 SSW 1013,8 - 0 1,0
15.10.2019 17:00:00 12,4 10,6 11,4 16 9 36 19 SSW 1012,4 30 0 0,1
15.10.2019 16:00:00 12,6 10,6 11,9 25 14 40 21 SSW 1011,2 - 0 0,3
15.10.2019 15:00:00 12,9 10,7 12,0 29 15 40 22 SW 1010,4 - 0 0,7
15.10.2019 14:00:00 13,9 12,8 13,6 19 10 27 15 SW 1009,8 10 0 1,2
15.10.2019 13:00:00 13,6 12,6 13,1 10 6 19 10 WSW 1009,9 - 0 0,9
15.10.2019 12:00:00 13,6 12,4 13,2 7 4 18 10 W 1010,2 - 0 0,7
15.10.2019 11:00:00 13,4 12,3 12,7 15 8 27 15 SSW 1010,6 10 0 3,8
15.10.2019 10:00:00 14,3 13,4 13,6 16 9 27 15 SW 1010,3 - 0 6,0
15.10.2019 09:00:00 13,9 13,2 13,0 5 3 17 9 NNE 1008,5 - 0 0,3
15.10.2019 08:00:00 13,6 13,0 12,8 2 1 24 13 SE 1008,6 7 0 3,4
15.10.2019 07:00:00 13,4 12,7 12,7 6 3 11 6 WNW 1008,4 - 0 0,8
15.10.2019 06:00:00 13,5 12,3 12,3 3 1 8 4 N 1007,7 - 0 0,0
15.10.2019 05:00:00 12,9 11,7 12,1 4 2 10 5 NNW 1009,1 - 0 0,0
15.10.2019 04:00:00 12,5 11,4 10,3 3 2 8 5 SW 1009,0 - 0 0,0
15.10.2019 03:00:00 12,4 11,1 10,6 4 2 7 4 W 1009,9 - 0 0,0
15.10.2019 02:00:00 12,8 11,3 10,4 2 1 5 3 WNW 1010,8 - 0 0,0
15.10.2019 01:00:00 13,1 11,4 11,0 3 2 5 3 W 1011,1 - 0 0,0
15.10.2019 00:00:00 13,0 11,4 9,9 2 1 6 3 N 1011,8 - 0 0,0
14.10.2019 23:00:00 13,6 11,9 10,7 1 1 6 3 NNE 1012,4 50 0 0,0
14.10.2019 22:00:00 14,6 12,3 11,4 4 2 8 5 N 1012,3 - 0 0,0
14.10.2019 21:00:00 14,8 12,1 11,6 3 2 9 5 N 1012,4 - 0 0,0
14.10.2019 20:00:00 16,6 12,1 13,0 5 3 8 5 ENE 1012,2 50 0 0,0
14.10.2019 19:00:00 18,0 11,7 14,5 4 2 14 7 N 1011,7 - 3 0,0
14.10.2019 18:00:00 18,9 12,1 19,1 10 6 16 9 NNE 1011,5 - 53 0,0
14.10.2019 17:00:00 21,4 12,2 23,4 10 5 21 12 E 1011,1 50 60 0,0
14.10.2019 16:00:00 23,5 10,0 26,6 10 5 21 12 SW 1011,5 - 60 0,0
14.10.2019 15:00:00 23,1 10,4 26,9 11 6 24 13 SSW 1012,4 - 60 0,0
14.10.2019 14:00:00 22,7 10,5 26,4 17 9 34 18 SSW 1013,9 35 60 0,0
14.10.2019 13:00:00 21,4 11,7 25,4 9 5 19 10 SW 1015,2 - 60 0,0
14.10.2019 12:00:00 19,7 12,9 23,5 5 3 11 6 WSW 1016,2 - 60 0,0
14.10.2019 11:00:00 17,0 12,6 21,1 6 3 - - SSW 1017,2 30 47 0,0
14.10.2019 10:00:00 14,3 12,4 17,7 - - - - - - - 60 0,0
14.10.2019 09:00:00 11,3 10,7 11,4 - - - - - - - 4 0,0
14.10.2019 08:00:00 10,7 10,2 8,4 - - - - - - 25 0 0,0
14.10.2019 07:00:00 10,1 9,7 8,2 - - - - - - - 0 0,0
14.10.2019 06:00:00 10,6 10,1 7,5 - - - - - - - 0 0,0
14.10.2019 05:00:00 11,3 10,8 7,6 - - - - - - - 0 0,0
14.10.2019 04:00:00 11,6 10,9 8,2 - - - - - - - 0 0,0
14.10.2019 03:00:00 12,9 11,6 9,5 - - - - - - - 0 0,0
14.10.2019 02:00:00 13,6 12,2 9,9 - - - - - - - 0 0,0
14.10.2019 01:00:00 13,5 11,8 10,0 - - - - - - - 0 0,0
14.10.2019 00:00:00 14,5 11,9 11,0 - - - - - - - 0 0,0
13.10.2019 23:00:00 17,1 12,3 14,3 - - - - - - 40 0 0,0
13.10.2019 22:00:00 17,8 12,5 14,4 - - - - - - - 0 0,0
13.10.2019 21:00:00 18,8 12,9 16,4 - - - - - - - 0 0,0
13.10.2019 20:00:00 18,6 13,2 14,6 - - - - - - 35 0 0,0
13.10.2019 19:00:00 20,4 13,5 16,5 - - - - - - - 28 0,0
13.10.2019 18:00:00 22,8 13,6 23,0 - - - - - - - 60 0,0
13.10.2019 17:00:00 23,6 14,0 25,5 - - - - - - 30 60 0,0
13.10.2019 16:00:00 23,3 13,5 26,5 - - - - - - - 60 0,0
13.10.2019 15:00:00 23,0 13,6 26,6 - - - - - - - 60 0,0
13.10.2019 14:00:00 22,4 13,1 25,4 - - - - - - 30 60 0,0
13.10.2019 13:00:00 21,0 12,9 24,3 - - - - - - - 60 0,0
13.10.2019 12:00:00 20,2 12,6 23,5 - - - - - - - 60 0,0
13.10.2019 11:00:00 17,9 12,4 21,3 - - - - - - 35 60 0,0
13.10.2019 10:00:00 15,7 12,3 18,1 - - - - - - - 60 0,0
13.10.2019 09:00:00 11,3 10,9 11,6 - - - - - - - 9 0,0
13.10.2019 08:00:00 11,5 10,8 8,0 3 2 7 4 NNE 1018,3 25 0 0,0
13.10.2019 07:00:00 11,4 10,8 8,2 2 1 6 4 SE 1018,7 - 0 0,0
13.10.2019 06:00:00 11,6 11,1 8,1 1 0 13 7 NNE 1018,8 - 0 0,0
13.10.2019 05:00:00 12,1 11,2 9,0 4 2 14 7 WNW 1018,7 - 0 0,0
13.10.2019 04:00:00 12,9 12,0 9,5 6 3 23 12 W 1018,7 - 0 0,0
13.10.2019 03:00:00 13,4 12,4 11,0 9 5 23 12 SW 1019,0 - 0 0,0
13.10.2019 02:00:00 14,8 12,4 10,5 8 5 12 6 W 1018,9 - 0 0,0
13.10.2019 01:00:00 13,2 12,1 10,2 3 2 9 5 NW 1019,0 - 0 0,0
13.10.2019 00:00:00 14,3 12,5 10,7 4 2 8 4 N 1019,0 - 0 0,0
12.10.2019 23:00:00 14,9 13,1 12,3 6 3 16 8 SW 1018,9 35 0 0,0
12.10.2019 22:00:00 15,5 13,0 11,9 3 2 10 6 S 1018,7 - 0 0,0
12.10.2019 21:00:00 15,7 13,0 12,6 3 1 11 6 NE 1018,5 - 0 0,0
12.10.2019 20:00:00 17,6 12,7 13,3 1 1 29 16 SSW 1018,3 35 0 0,0
12.10.2019 19:00:00 19,4 13,3 17,0 19 10 43 23 SW 1017,7 - 1 0,0
12.10.2019 18:00:00 20,7 13,3 21,0 29 16 46 25 SW 1017,1 - 22 0,0
12.10.2019 17:00:00 21,0 12,9 20,7 25 13 37 20 SW 1017,2 45 11 0,0
12.10.2019 16:00:00 20,8 13,2 20,7 22 12 30 16 SSW 1017,3 - 4 0,0
12.10.2019 15:00:00 21,1 12,3 21,3 20 11 36 19 SSW 1017,5 - 23 0,0
12.10.2019 14:00:00 20,4 11,3 22,4 18 10 33 18 SSW 1017,9 45 32 0,0
12.10.2019 13:00:00 19,6 10,1 20,5 7 4 24 13 SW 1018,2 - 15 0,0
12.10.2019 12:00:00 18,6 9,9 23,7 7 4 12 7 WSW 1018,6 - 57 0,0
12.10.2019 11:00:00 16,9 8,4 20,4 5 3 11 6 SW 1019,1 50 60 0,0
12.10.2019 10:00:00 14,2 9,3 16,6 4 2 10 5 NNE 1019,4 - 56 0,0
12.10.2019 09:00:00 10,7 9,3 9,4 3 2 13 7 N 1020,2 - 3 0,0
12.10.2019 08:00:00 9,4 8,5 6,2 3 1 10 5 NNW 1020,2 40 0 0,0
12.10.2019 07:00:00 9,0 7,9 5,8 4 2 11 6 NW 1020,3 - 0 0,0
12.10.2019 06:00:00 9,5 8,7 5,8 5 3 7 4 SSE 1020,2 - 0 0,0
12.10.2019 05:00:00 9,3 8,4 5,9 2 1 9 5 NNE 1020,2 - 0 0,0
12.10.2019 04:00:00 8,6 7,7 5,6 2 1 6 3 N 1020,6 - 0 0,0
12.10.2019 03:00:00 10,2 9,2 6,6 2 1 8 4 NNE 1020,6 - 0 0,0
12.10.2019 02:00:00 11,2 9,4 7,4 3 1 15 8 SSE 1020,4 - 0 0,0
12.10.2019 01:00:00 12,0 9,6 7,9 5 3 19 10 SSW 1020,3 - 0 0,0
12.10.2019 00:00:00 13,0 9,5 10,1 9 5 20 11 W 1020,2 - 0 0,0
11.10.2019 23:00:00 12,5 9,6 9,5 10 6 18 10 WSW 1020,1 35 0 0,0
11.10.2019 22:00:00 12,3 8,7 8,6 8 4 19 10 WSW 1019,9 - 0 0,0
11.10.2019 21:00:00 14,7 8,2 12,5 10 6 17 9 WSW 1019,2 - 0 0,0
11.10.2019 20:00:00 13,6 9,4 9,8 4 2 13 7 SSW 1019,2 40 0 0,0
11.10.2019 19:00:00 17,6 8,3 15,6 9 5 12 7 W 1018,2 - 35 0,0
11.10.2019 18:00:00 18,9 8,6 19,6 5 3 14 8 W 1018,1 - 60 0,0
11.10.2019 17:00:00 19,8 8,2 22,0 8 5 16 9 WSW 1018,1 40 60 0,0
11.10.2019 16:00:00 19,9 7,8 23,5 9 5 16 9 WSW 1018,5 - 60 0,0
11.10.2019 15:00:00 18,1 7,8 23,4 6 3 16 9 SW 1019,6 - 60 0,0
11.10.2019 14:00:00 17,1 7,2 22,4 5 3 13 7 SW 1020,8 - 60 0,0
11.10.2019 13:00:00 15,2 6,4 20,9 7 4 14 8 SW 1022,0 - 60 0,0
11.10.2019 12:00:00 13,0 6,9 18,9 4 2 9 5 WSW 1023,0 - 60 0,0
11.10.2019 11:00:00 11,2 6,6 16,0 4 2 8 5 SW 1023,9 35 60 0,0
11.10.2019 10:00:00 9,2 6,2 12,6 3 2 6 3 WSW 1024,2 - 60 0,0
11.10.2019 09:00:00 6,1 5,0 6,2 4 2 6 4 SW 1024,3 - 16 0,0
11.10.2019 08:00:00 4,7 3,7 2,2 5 3 6 4 WNW 1024,1 20 0 0,0
11.10.2019 07:00:00 4,7 3,8 2,3 5 3 6 3 W 1023,9 - 0 0,0
11.10.2019 06:00:00 4,6 3,7 1,6 2 1 6 3 NNW 1024,4 - 0 0,0
11.10.2019 05:00:00 5,3 4,2 2,7 4 2 7 4 WNW 1024,3 - 0 0,0
11.10.2019 04:00:00 5,9 5,2 3,4 4 2 7 4 W 1024,6 - 0 0,0
11.10.2019 03:00:00 6,2 4,9 3,3 3 2 6 3 S 1024,8 - 0 0,0
11.10.2019 02:00:00 6,1 4,9 2,9 2 1 9 5 N 1025,1 - 0 0,0
11.10.2019 01:00:00 7,4 5,7 4,0 4 2 9 5 WSW 1024,6 - 0 0,0
11.10.2019 00:00:00 8,0 6,3 5,5 4 2 6 3 W 1024,4 - 0 0,0
10.10.2019 23:00:00 8,6 7,2 6,2 5 3 9 5 NW 1024,4 35 0 0,0
10.10.2019 22:00:00 9,4 7,5 5,4 3 1 6 4 NNW 1023,9 - 0 0,0
10.10.2019 21:00:00 11,5 7,6 7,3 4 2 9 5 S 1023,4 - 0 0,0
10.10.2019 20:00:00 13,1 7,3 9,4 6 3 12 7 W 1023,0 35 0 0,0
10.10.2019 19:00:00 15,3 7,0 13,1 9 5 16 9 WSW 1022,0 - 30 0,0
10.10.2019 18:00:00 16,8 6,1 18,3 9 5 18 10 SW 1021,5 - 58 0,0
10.10.2019 17:00:00 17,8 6,1 20,8 9 5 27 15 SW 1021,3 35 54 0,0
10.10.2019 16:00:00 17,6 6,3 21,8 12 7 30 16 SSW 1021,6 - 60 0,0
10.10.2019 15:00:00 16,8 6,1 20,0 15 8 30 16 SSW 1021,9 - 60 0,0
10.10.2019 14:00:00 16,7 7,0 20,0 17 9 30 16 WSW 1022,1 30 31 0,0
10.10.2019 13:00:00 15,3 7,8 16,5 20 11 31 17 SW 1022,5 - 2 0,0
10.10.2019 12:00:00 15,0 6,9 17,0 22 12 30 16 SW 1022,4 - 20 0,0
10.10.2019 11:00:00 13,1 9,6 13,4 7 4 18 10 W 1022,9 25 0 0,0
10.10.2019 10:00:00 13,0 9,3 13,1 13 7 19 10 SSW 1022,3 - 0 0,1
10.10.2019 09:00:00 11,9 8,0 11,2 9 5 15 8 WSW 1021,9 - 0 0,0
10.10.2019 08:00:00 11,8 6,8 9,6 13 7 27 15 SSW 1021,1 30 0 0,0
10.10.2019 07:00:00 11,8 6,3 9,0 22 12 29 16 S 1020,8 - 0 0,0
10.10.2019 06:00:00 12,4 7,0 9,8 17 9 26 14 SSW 1020,2 - 0 0,0
10.10.2019 05:00:00 12,1 7,2 9,3 18 10 26 14 SSW 1019,9 - 0 0,0
10.10.2019 04:00:00 11,4 8,1 9,6 17 9 35 19 WSW 1019,7 - 0 0,0
10.10.2019 03:00:00 13,0 7,0 9,7 22 12 31 17 SSW 1019,3 - 0 0,0
10.10.2019 02:00:00 11,4 9,6 8,5 5 3 15 8 SSE 1019,7 - 0 0,0
10.10.2019 01:00:00 11,6 10,3 10,6 11 6 34 18 WSW 1019,8 - 0 0,3
10.10.2019 00:00:00 12,8 8,5 10,1 14 8 29 15 SW 1019,5 - 0 0,1
09.10.2019 23:00:00 13,1 8,9 10,9 17 9 26 14 SW 1019,3 30 0 0,0
09.10.2019 22:00:00 13,2 9,4 11,7 12 6 19 10 WSW 1019,0 - 0 0,0
09.10.2019 21:00:00 13,4 8,9 12,0 15 8 25 14 SW 1018,6 - 0 0,0
09.10.2019 20:00:00 13,1 9,5 11,5 12 7 22 12 SW 1018,5 45 0 0,0

tt = temperature
td = dewpoint
tt 5cm = temperature 5cm
ff = wind speed
fx = gusts
dd = wind direction
ppp = reduced air pressure
vv = visibility
sd = sunshine duration
rr = precipitation

Next stations